Regional Weather Roundup
Issued by NWS

Home | Current Version | Previous Version | Text Only | Print | Product List | Glossary Off
Versions: 1 2 3 4 5 6 7 8 9 10 11 12 13 14 15 16 17 18 19 20 21 22 23 24 25 26 27 28 29 30 31 32 33 34 35 36 37 38 39 40 41 42 43 44 45 46 47 48 49 50

000
ASUS43 KOAX 062010
RWRNE

WEATHER ROUNDUP FOR NEBRASKA
NATIONAL WEATHER SERVICE OMAHA NE
300 PM CDT MON JUL 06 2015

NOTES: SATELLITE DATA IS BEING USED TO AUGMENT CLOUD COVER ABOVE
       12000 FEET.
       "FAIR" INDICATES FEW OR NO CLOUDS BELOW 12,000 FEET WITH NO
       SIGNIFICANT WEATHER AND/OR OBSTRUCTIONS TO VISIBILITY.

  * THESE STATIONS DO NOT REPORT WEATHER SUCH AS RAIN...SNOW OR FOG.

NEZ001>004-019>022-054>056-062100-
NEBRASKA PANHANDLE

CITY           SKY/WX    TMP DP  RH WIND       PRES   REMARKS
SCOTTSBLUFF    CLOUDY    66  52  60 NE3       30.26S HAZE
ALLIANCE       CLOUDY    67  54  63 N12       30.23S HAZE
CHADRON        CLOUDY    71  53  52 NE8       30.24S HAZE
KIMBALL          N/A    N/A N/A N/A MISG        N/A
SIDNEY         CLOUDY    69  52  54 NE16G23   30.25S HAZE
$$

NEZ057>060-069>072-079>082-062100-
SOUTHWEST NEBRASKA

CITY           SKY/WX    TMP DP  RH WIND       PRES   REMARKS
NORTH PLATTE   PTSUNNY   75  54  47 N20G26    30.13S HAZE
IMPERIAL       CLOUDY    75  55  49 NE13G22   30.16S
LEXINGTON        N/A     77  56  48 N17G24    30.08S HAZE
MCCOOK         CLOUDY    74  60  61 N20       30.10S HAZE
OGALLALA       PTSUNNY   75  52  44 NE16G22   30.18S HAZE
$$

NEZ005>010-023>029-035>040-094-062100-
NORTH CENTRAL NEBRASKA

CITY           SKY/WX    TMP DP  RH WIND       PRES   REMARKS
VALENTINE      PTSUNNY   72  52  49 N12G22    30.16R
AINSWORTH      MOSUNNY   74  53  47 N16G29    30.15R
BROKEN BOW     PTSUNNY   74  54  49 N18G30    30.10R HAZE
O`NEILL        CLOUDY    75  57  54 N20G26    30.09R HAZE
ORD            PTSUNNY   77  52  41 N20G29    30.06R HAZE
THEDFORD       MOSUNNY   73  53  48 NE16G23   30.16S HAZE
$$

NEZ041-046>049-061>064-073>077-083>087-062100-
SOUTH CENTRAL NEBRASKA

CITY           SKY/WX    TMP DP  RH WIND       PRES   REMARKS
GRAND ISLAND   PTSUNNY   76  61  59 N23G29    30.02S
AURORA         CLOUDY    74  67  78 N16G23    30.01R
HASTINGS       CLOUDY    75  61  61 N20G32    30.01S
HEBRON         CLOUDY    72  66  81 N14G24    29.95R
HOLDREGE       PTSUNNY   74  61  62 N21       30.05S
KEARNEY *      PTSUNNY   75  59  57 N21G29    30.04S
YORK           CLOUDY    72  66  83 N17G25    29.99R
$$

NEZ011>018-030>034-042>045-062100-
NORTHEAST NEBRASKA

CITY           SKY/WX    TMP DP  RH WIND       PRES   REMARKS
NORFOLK        CLOUDY    74  64  71 N15G28    30.01R HAZE
ALBION         MOSUNNY   76  58  53 N15G26    30.03R HAZE
BLAIR          CLOUDY    73  68  84 N13G18    29.93S
FREMONT        CLOUDY    74  69  85 N12G21    29.96R
TEKAMAH        CLOUDY    76  69  79 N22G29    29.94R
WAYNE          PTSUNNY   75  66  73 N12G21    30.00S
$$

NEZ050>053-065>068-078-088>093-062100-
SOUTHEAST NEBRASKA

CITY           SKY/WX    TMP DP  RH WIND       PRES   REMARKS
LINCOLN        CLOUDY    73  70  90 N18       29.94S
OMAHA EPPLEY   CLOUDY    75  71  87 NW8       29.91F
BEATRICE       CLOUDY    73  71  93 N15       29.91R
FALLS CITY     LGT RAIN  72  68  87 NW15G28   29.84F
NEBRASKA CITY  LGT RAIN  73  71  93 N8        29.90S
PLATTSMOUTH    CLOUDY    73  69  87 NW10G16   29.91F
$$

NEZ044-045-051>053-067-062100-
OMAHA AREA

CITY           SKY/WX    TMP DP  RH WIND       PRES   REMARKS
OMAHA EPPLEY   CLOUDY    75  71  87 NW8       29.91F
BLAIR          CLOUDY    73  68  84 N13G18    29.93S
FREMONT        CLOUDY    74  69  85 N12G21    29.96R
MILLARD        DRIZZLE   74  71  88 NW8       29.92S
OFFUTT AFB     LGT RAIN  73  72  94 NW6       29.90F
PLATTSMOUTH    CLOUDY    73  69  87 NW10G16   29.91F
WAHOO          CLOUDY    73  69  87 N14G20    29.95R
$$



USA.gov is the U.S. government's official web portal to all federal, state and local government web resources and services.